C/2001 K5 ( LINEAR )

Japanese version
Home page
Updated on March 5, 2005

---------------------------------------------------------------------

* Profile

Discovery Date May 17, 2001
Magnitude 16.7 mag
Discoverer Lincoln Laboratory Near-Earth Asteroid Research project

* Pictures

* Orbital Elements

Epoch 2002 Oct. 13.0 TT = JDT 2452560.5
T 2002 Oct. 11.7641 TT                                  MPCN
q   5.184275             (2000.0)            P               Q
z  +0.000091       Peri.   47.0550      -0.1818339      +0.5655360
 +/-0.000004       Node   237.4619      -0.9128647      +0.2070170
e   0.999531       Incl.   72.5935      +0.3655333      +0.7983188
From 231 observations 2001 Apr. 30-2002 Feb. 19, mean residual 0".5.

* Finding Charts

* Magnitudes Graph

        m1 = -4.1 + 5 log d + 21.0 log r

---------------------------------------------------------------------

The orbital elements are published at the MPC Ephemerides and Orbital Elements.
The charts are made with StellaNavigator Ver.2.0 for Windows (AstroArts / ASCII).
The magnitudes graphs are made with Comet for Windows.

---------------------------------------------------------------------

Copyright(C) Seiichi Yoshida (comet@aerith.net). All rights reserved.